Weather Roundup
Issued by NWS Chicago, IL

Home | Current Version | Previous Version | Graphics & Text | Print | Product List | Glossary On
Versions: 1 2 3 4 5 6 7 8 9 10 11 12 13 14 15 16 17 18 19 20 21 22 23 24 25 26 27 28 29 30 31 32 33 34 35 36 37 38 39 40 41 42 43 44 45 46 47 48 49 50
000
NZUS59 KLOT 282206
HRRLOT

CHICAGO AREA WEATHER ROUNDUP
NATIONAL WEATHER SERVICE CHICAGO/ROMEOVILLE IL
500 PM CDT MON JUL 28 2014

NOTE: "FAIR" INDICATES FEW OR NO CLOUDS BELOW 12,000 FEET WITH NO
SIGNIFICANT WEATHER AND/OR OBSTRUCTIONS TO VISIBILITY.

* THESE STATIONS ARE NOT UNDER NWS QUALITY CONTROL. THEY ALSO MAY NOT
  REPORT WEATHER SUCH AS PRECIPITATION OR FOG.

ILZ005-006-012>014-019>023-282300-
NORTHEAST ILLINOIS

CITY           SKY/WX    TMP DP  RH WIND       PRES   REMARKS
OHARE          MOSUNNY   71  48  43 NE8       30.09R
MIDWAY         MOSUNNY   72  50  45 NE12      30.08S
AURORA         PTSUNNY   70  49  47 NW9       30.11R
LANSING*       SUNNY     65  47  51 N12G20    30.10S
JOLIET*        CLOUDY    70  45  40 N7        30.10S
WAUKEGAN       SUNNY     65  50  58 NE6       30.08F
DUPAGE AIRPORT CLOUDY    70  49  47 N8        30.09S
WHEELING       SUNNY     68  50  52 NE8       30.11R
KANKAKEE*      SUNNY     69  48  46 N12G18    30.09F
MORRIS*        CLOUDY    70  51  51 N5        30.10S
LEWIS AIRPORT* CLOUDY    70  45  40 N9G16     30.09S
NORTHERLY IS     N/A     64  49  57 MISG        N/A
$$

WIZ051-052-058>065-066-070>072-282300-
SOUTHEAST WISCONSIN

CITY           SKY/WX    TMP DP  RH WIND       PRES   REMARKS
MILWAUKEE      PTSUNNY   64  50  60 E7        30.09S
KENOSHA*       MOSUNNY   69  52  54 NE7       30.09S
RACINE*        SUNNY     65  50  58 NE7       30.10F
BURLINGTON     SUNNY     70  49  47 N6        30.09S
WAUKESHA       PTSUNNY   70  48  46 NW10      30.09F
WEST BEND      CLOUDY    68  50  52 N5        30.06F
$$

INZ001>003-010>013-019-020-282300-
NORTHWEST INDIANA

CITY           SKY/WX    TMP DP  RH WIND       PRES   REMARKS
GARY*          MOSUNNY   66  48  52 N12G23    30.11S
MICHIGAN CITY* NOT AVBL
RENSSELAER*    NOT AVBL
VALPARAISO     SUNNY     64  46  52 N13G26    30.08S
$$

LMZ740>746-282300-
SOUTHERN LAKE MICHIGAN

STATION/POSITION TIME  SKY/WX   TEMP WIND        PRES    VSBY
                                AIR  DIR/SP/G
                 (UTC)          (F)  (DEG/KT/KT) (MB)    (MI)
HARRISON CRIB    2200            62   10/ 16/ 18   N/A
BURNHAM HARBOR   2200            64   20/  9/ 14   N/A
CALUMET HARBOR   2200            63  340/ 11/ 14 1018.1S
BURNS HARBOR     NOT AVBL
MICHIGAN CITY    2200            63  330/ 26/ 31   N/A
$$

ABBREVIATIONS USED IN REMARKS
   TC - TEMPERATURE IN CELSIUS
  WCI - WIND CHILL INDEX
   HX - HEAT INDEX
  VSB - VISIBILITY
$$


USA.gov is the U.S. government's official web portal to all federal, state and local government web resources and services.